Regional Weather Roundup
Issued by NWS

Home | Current Version | Previous Version | Text Only | Print | Product List | Glossary On
Versions: 1 2 3 4 5 6 7 8 9 10 11 12 13 14 15 16 17 18 19 20 21 22 23 24 25 26 27 28 29 30 31 32 33 34 35 36 37 38 39 40 41 42 43 44 45 46 47 48 49 50
000
ASUS43 KMKX 302359
RWRWI

WISCONSIN REGIONAL WEATHER ROUNDUP
NATIONAL WEATHER SERVICE MILWAUKEE/SULLIVAN WI
600 PM CST FRI JAN 30 2015

NOTE: "FAIR" INDICATES FEW OR NO CLOUDS BELOW 12,000 FEET WITH NO
SIGNIFICANT WEATHER AND/OR OBSTRUCTIONS TO VISIBILITY.

WIZ001-002-006>008-014>016-023>028-310100-
NORTHWEST WISCONSIN

CITY           SKY/WX    TMP DP  RH WIND       PRES   REMARKS
SUPERIOR ARPT  CLOUDY    17   5  61 S6        30.27F WCI   8
ASHLAND        CLOUDY    19   4  51 S7        30.27F WCI  10
6HR MIN TEMP:  14; 6HR MAX TEMP:  19; 6HR PCP: TRACE;

HAYWARD        CLOUDY    15   3  59 S7        30.25F WCI   5
6HR MIN TEMP:  10; 6HR MAX TEMP:  16;

SIREN          CLOUDY    19   8  61 SE3       30.26F
CUMBERLAND     MOCLDY    14   5  67 SE8       30.25F WCI   3
RICE LAKE      MOCLDY    15   6  67 SE9       30.30F WCI   4
CHETEK         PTCLDY    15   5  66 SE7       30.30F WCI   5
LADYSMITH      CLOUDY    16   7  67 S6        30.31F WCI   7
EAU CLAIRE     PTCLDY    16   4  59 SE6       30.31F WCI   7
6HR MIN TEMP:  13; 6HR MAX TEMP:  19;

MENOMONIE      CLEAR     17   7  67 E5        30.32F WCI   9
NEW RICHMOND   PTCLDY    18  11  74 SE7       30.27F WCI   9
OSCEOLA        PTCLDY    20  12  72 SE8       30.29F WCI  10
$$

WIZ003>005-009-010-017-018-310100-
NORTH CENTRAL WISCONSIN

CITY           SKY/WX    TMP DP  RH WIND       PRES   REMARKS
MANITOWISH WTR PTCLDY    13   5  68 CALM      30.23F
ARBOR VITAE    PTCLDY    17   6  62 CALM      30.24F
WOODRUFF       PTCLDY    17   6  62 CALM      30.24F
RHINELANDER    CLEAR     16   3  56 S8        30.26F WCI   5
6HR MIN TEMP:  13; 6HR MAX TEMP:  18;

EAGLE RIVER    CLEAR     15   4  62 CALM      30.25F
LAND O LAKES   CLOUDY    15   6  67 CALM      30.25S
PHILLIPS       CLOUDY    15   4  62 SW6       30.26F WCI   6
TOMAHAWK       CLOUDY    15   4  62 CALM      30.29F
MEDFORD        CLOUDY    14   6  70 S6        30.29F WCI   5
MERRILL        CLOUDY    15   6  65 SW6       30.31F WCI   7
$$

WIZ029-030-035-036-043>047-310100-
CENTRAL WISCONSIN

CITY           SKY/WX    TMP DP  RH WIND       PRES   REMARKS
WAUSAU         CLOUDY    16   5  62 SW3       30.30F
6HR MIN TEMP:  14; 6HR MAX TEMP:  18;

MOSINEE        NOT AVBL
MARSHFIELD     CLEAR     16   5  62 CALM      30.31F
6HR MIN TEMP:  14; 6HR MAX TEMP:  20;

STEVENS POINT  MOCLDY    17   6  62 S8        30.34F WCI   6
WAUPACA        PTCLDY    22   9  56 SW5       30.38S WCI  16
WAUTOMA        NOT AVBL
WISC RAPIDS    PTCLDY    19   4  51 S6        30.35F WCI  11
6HR MIN TEMP:  17; 6HR MAX TEMP:  21;

CAMP DOUGLAS   NOT AVBL
$$

WIZ011>013-019>022-031-037>040-048>050-310100-
NORTHEAST WISCONSIN

CITY           SKY/WX    TMP DP  RH WIND       PRES   REMARKS
ANTIGO         CLOUDY    15   6  68 SW7       30.29F WCI   5
SHAWANO        MOCLDY    22   7  51 CALM      30.36F
OCONTO         CLOUDY    20   7  59 CALM      30.38F
STURGEON BAY   CLOUDY    18   7  62 S5        30.39F WCI  11
6HR MIN TEMP:  14; 6HR MAX TEMP:  18;

GREEN BAY      CLOUDY    20  11  68 S6        30.38F WCI  12
6HR MIN TEMP:  19; 6HR MAX TEMP:  21;

MANITOWOC      NOT AVBL
APPLETON       MOCLDY    18   9  68 VRB5      30.37F WCI  11
CLINTONVILLE   MOCLDY    21   7  53 SW3       30.37S
OSHKOSH        PTCLDY    21  10  62 CALM      30.38F
6HR MIN TEMP:  19; 6HR MAX TEMP:  23;

$$

WIZ032>034-041-042-053>061-310100-
SOUTHWEST WISCONSIN

CITY           SKY/WX    TMP DP  RH WIND       PRES   REMARKS
LA CROSSE      CLEAR     23   8  52 S6        30.36F WCI  16
6HR MIN TEMP:  19; 6HR MAX TEMP:  27;

SPARTA         CLEAR     19   7  60 CALM      30.36F
VIROQUA        CLEAR     20   9  61 S6        30.33F WCI  13
BOSCOBEL       CLEAR     23   8  52 SW3       30.39F
6HR MIN TEMP:  21; 6HR MAX TEMP:  28;

PRAIRIE DU CHI CLEAR     25   8  46 CALM      30.39S
PLATTEVILLE    CLEAR     22  13  68 S6        30.38S WCI  15
$$

WIZ056-057-062-063-064-067-068-310100-
SOUTH CENTRAL WISCONSIN

CITY           SKY/WX    TMP DP  RH WIND       PRES   REMARKS
REEDSBURG      CLOUDY    22   9  56 CALM      30.37F
BARABOO/DELLS  CLOUDY    22   8  54 CALM      30.37S
LONE ROCK      NOT AVBL
MINERAL POINT  CLEAR     23  10  58 SW6       30.37S WCI  16
MADISON        MOCLDY    23   7  50 SW3       30.38F
6HR MIN TEMP:  21; 6HR MAX TEMP:  25;

MIDDLETON      MOCLDY    25   8  48 SW3       30.39R
WATERTOWN      CLEAR     22  11  63 SW5       30.39S WCI  16
MONROE         CLEAR     23  14  68 SW6       30.37F WCI  16
JANESVILLE     CLEAR     25  12  58 SW6       30.40S WCI  18
$$

WIZ051-052-058>065-066-070>072-310100-
SOUTHEAST WISCONSIN

CITY           SKY/WX    TMP DP  RH WIND       PRES   REMARKS
MILWAUKEE      MOCLDY    24   7  48 SW7       30.40F WCI  16
6HR MIN TEMP:  24; 6HR MAX TEMP:  28;

WAUKESHA       CLEAR     19   9  63 W5        30.40S WCI  13
MILWAUKEE/TIMM CLEAR     21   7  53 SW6       30.41F WCI  14
RACINE         CLEAR     24   8  50 SW3       30.42F
6HR MIN TEMP:  23; 6HR MAX TEMP:  28;

BURLINGTON     CLEAR     19   9  66 SW3       30.41S
KENOSHA        CLEAR     21  11  65 W6        30.40F WCI  13
6HR MIN TEMP:  19; 6HR MAX TEMP:  28;

FOND DU LAC    PTCLDY    21  11  65 S5        30.38S WCI  15
6HR MIN TEMP:  19; 6HR MAX TEMP:  23; 6HR PCP: TRACE;

SHEBOYGAN      PTCLDY    20   9  62 W5        30.39S WCI  13
6HR MIN TEMP:  20; 6HR MAX TEMP:  25;

WEST BEND      PTCLDY    21   9  58 W5        30.40R WCI  15
JUNEAU         PTCLDY    21  12  67 CALM      30.40S
$$

LSZ147-162-310100-
LAKE SUPERIOR

STATION/POSITION TIME  TEMP    WIND        PRES    WAVE
                       AIR SEA DIR/SP/G            HT/PER
                 (UTC) (F)     (DEG/KT/KT) (MB)    (FT/S)
DEVILS ISLAND    2300   16     200/  6/  8 1027.5F
PORT WING        2340   18     190/  4/  6 1025.4F
SAXON HARBOR     2300   19     200/  2/  5 1026.1F
$$

LMZ867-665-643>646-310100-
LAKE MICHIGAN

STATION/POSITION TIME  TEMP    WIND        PRES    WAVE
                       AIR SEA DIR/SP/G            HT/PER
                 (UTC) (F)     (DEG/KT/KT) (MB)    (FT/S)
NORTHPORT PIER   2314   17      CALM  /  5 1028.8F
SISTER BAY       2213             CALM       N/A
KEWAUNEE LAKESHO 2300   20     250/  2/  5 1028.5F
SHEBOYGAN LAKESH 2300   23     200/  7/  9 1030.9F
PORT WASHINGTON  2340   24     270/  5/  8 1030.5R
MILWAUKEE LAKESH 2300   26     220/ 10/ 11   N/A
KENOSHA   LAKESH 2300   25     190/  6/  9 1029.8F
$$

TC  - TEMPERATURE IN CELSIUS
VSB - VISIBILITY IN STATUTE MILES
WCI - WIND CHILL INDEX
HX  - HEAT INDEX



USA.gov is the U.S. government's official web portal to all federal, state and local government web resources and services.